GW4538 Weather Reports


time (UTC)temp
C
wind
direction
speed
KPH
gust
KPH
rain 1hr
cm
rain 24hr
cm
rain mn
cm
humidity
%
barometer
mb
20260508023843 -17 354 0.0 0.0 0.00 0.10 0.10 1016.5
20260508023340 -17 28 0.0 1.6 0.00 0.10 0.10 1016.5
20260508022837 -17 17 0.0 0.0 0.00 0.10 0.10 1016.6
20260508022332 -17 119 3.2 3.2 0.00 0.10 0.10 1016.5
20260508021830 -17 54 1.6 3.2 0.00 0.10 0.10 1016.6
20260508021325 -17 225 1.6 3.2 0.00 0.10 0.10 1016.7
20260508020821 -17 94 3.2 3.2 0.00 0.10 0.10 1016.6
20260508020319 -17 52 1.6 3.2 0.00 0.10 0.10 1016.5
20260508015816 -17 68 1.6 3.2 0.00 0.10 0.10 1016.6
20260508015314 -17 54 1.6 1.6 0.00 0.10 0.10 1016.5
20260508014810 -17 21 0.0 0.0 0.00 0.10 0.10 1016.5
20260508014308 -17 74 3.2 3.2 0.00 0.10 0.10 1016.5
20260508013803 -17 102 3.2 3.2 0.00 0.10 0.10 1016.4
20260508013259 -17 78 6.4 6.4 0.00 0.10 0.10 1016.4
20260508012757 -17 34 3.2 3.2 0.00 0.10 0.10 1016.6
20260508012254 -17 55 4.8 6.4 0.00 0.10 0.10 1016.3
20260508011752 -17 75 1.6 3.2 0.00 0.10 0.10 1016.4
20260508011249 -17 80 8.0 9.7 0.00 0.10 0.10 1016.4
20260508010746 -17 71 4.8 4.8 0.00 0.10 0.10 1016.2
20260508010244 -17 91 3.2 4.8 0.00 0.10 0.10 1016.3
20260508005741 -17 88 6.4 9.7 0.00 0.10 0.10 1016.2
20260508005237 -17 83 9.7 12.9 0.00 0.10 0.10 1016.2
20260508004733 -17 80 9.7 12.9 0.00 0.10 0.10 1016.3
20260508004229 -17 116 3.2 6.4 0.00 0.10 0.10 1016.3
20260508003726 -17 94 3.2 4.8 0.00 0.10 0.10 1016.0
20260508003224 -17 123 1.6 3.2 0.00 0.10 0.10 1016.0
20260508002720 -17 140 9.7 9.7 0.00 0.10 0.10 1016.0
20260508002218 -17 175 4.8 4.8 0.00 0.10 0.10 1015.8
20260508001713 -17 157 6.4 9.7 0.00 0.10 0.10 1015.9
20260508001209 -17 111 4.8 6.4 0.00 0.10 0.10 1015.8
20260508000705 -17 79 4.8 4.8 0.00 0.10 0.10 1015.8
20260508000204 -17 31 3.2 4.8 0.00 0.10 0.10 1015.7
20260507235659 -17 106 4.8 6.4 0.00 0.10 0.10 1015.6
20260507235156 -17 124 6.4 9.7 0.00 0.10 0.10 1015.7
20260507234653 -17 86 4.8 4.8 0.00 0.10 0.10 1015.8
20260507234149 -17 127 6.4 9.7 0.00 0.10 0.10 1015.7
20260507233647 -17 56 6.4 9.7 0.00 0.10 0.10 1015.5
20260507233145 -17 133 9.7 12.9 0.00 0.10 0.10 1015.5
20260507232642 -17 179 4.8 6.4 0.00 0.10 0.10 1015.4
20260507232139 -17 67 1.6 1.6 0.00 0.10 0.10 1015.4
20260507231635 -17 58 3.2 4.8 0.00 0.10 0.10 1015.3
20260507231132 -17 120 4.8 6.4 0.00 0.10 0.10 1015.1
20260507230628 -17 57 3.2 3.2 0.00 0.10 0.10 1014.9
20260507230126 -17 100 4.8 9.7 0.00 0.10 0.10 1014.7
20260507225620 -17 80 6.4 9.7 0.00 0.10 0.10 1014.9
20260507225117 -17 86 8.0 9.7 0.00 0.10 0.10 1014.7
20260507224613 -17 155 8.0 9.7 0.00 0.10 0.10 1014.7
20260507224110 -17 134 4.8 4.8 0.00 0.10 0.10 1014.7
20260507223606 -17 103 4.8 6.4 0.00 0.10 0.10 1014.7
20260507223103 -17 55 9.7 11.3 0.00 0.10 0.10 1014.7
20260507222600 -17 130 8.0 11.3 0.00 0.10 0.10 1014.7
20260507222056 -17 193 6.4 9.7 0.00 0.10 0.10 1014.7
20260507221552 -17 184 4.8 6.4 0.00 0.10 0.10 1014.6
20260507221049 -17 129 6.4 9.7 0.00 0.10 0.10 1014.7
20260507220547 -17 326 9.7 12.9 0.00 0.10 0.10 1014.6
20260507220044 -17 101 6.4 11.3 0.00 0.10 0.10 1014.6
20260507215540 -17 173 8.0 11.3 0.00 0.10 0.10 1014.5
20260507215038 -17 171 8.0 9.7 0.00 0.10 0.10 1014.3
20260507214535 -17 78 9.7 12.9 0.00 0.10 0.10 1014.2
20260507214031 -17 107 14.5 17.7 0.00 0.10 0.10 1014.2
20260507213527 -17 30 6.4 9.7 0.00 0.10 0.10 1014.2
20260507213025 -17 120 12.9 16.1 0.00 0.10 0.10 1014.2
20260507212520 -17 133 12.9 14.5 0.00 0.10 0.10 1014.0
20260507212012 -17 159 6.4 9.7 0.00 0.10 0.10 1014.0
20260507211509 -17 137 12.9 16.1 0.00 0.10 0.10 1013.8
20260507211005 -17 160 9.7 11.3 0.00 0.10 0.10 1014.0
20260507210502 -17 135 6.4 9.7 0.00 0.10 0.10 1014.2
20260507205959 -17 106 6.4 9.7 0.00 0.10 0.10 1014.1
20260507205456 -17 80 9.7 12.9 0.00 0.10 0.10 1014.1
20260507204952 -17 186 14.5 17.7 0.00 0.10 0.10 1014.0
20260507204448 -17 153 14.5 17.7 0.00 0.10 0.10 1014.0
20260507203945 -17 89 12.9 16.1 0.00 0.10 0.10 1013.8
20260507203443 -17 91 6.4 12.9 0.00 0.10 0.10 1014.1
20260507202939 -17 156 11.3 14.5 0.00 0.10 0.10 1013.8
20260507202436 -17 65 8.0 12.9 0.00 0.10 0.10 1013.9
20260507201932 -17 113 9.7 12.9 0.00 0.10 0.10 1014.0
20260507201432 -17 96 12.9 27.4 0.00 0.10 0.10 1014.0
20260507200929 -17 157 9.7 14.5 0.00 0.10 0.10 1014.0
20260507200425 -17 62 12.9 20.9 0.00 0.10 0.10 1013.9
20260507195921 -17 111 17.7 22.5 0.00 0.10 0.10 1014.0
20260507195419 -17 80 6.4 9.7 0.00 0.10 0.10 1013.9
20260507194916 -17 177 12.9 16.1 0.00 0.10 0.10 1013.7
20260507194412 -17 52 12.9 14.5 0.00 0.10 0.10 1013.9
20260507193908 -17 95 14.5 20.9 0.00 0.10 0.10 1014.4
20260507193406 -17 185 12.9 16.1 0.00 0.10 0.10 1014.3
20260507192902 -17 79 9.7 14.5 0.00 0.10 0.10 1014.1
20260507192358 -17 163 9.7 12.9 0.00 0.10 0.10 1014.1
20260507191855 -17 104 11.3 16.1 0.00 0.10 0.10 1014.2
20260507191351 -17 97 20.9 22.5 0.00 0.10 0.10 1014.2
20260507190848 -17 173 24.1 29.0 0.00 0.10 0.10 1014.3
20260507190346 -17 244 11.3 16.1 0.00 0.10 0.10 1014.4
20260507185845 -17 171 14.5 17.7 0.00 0.10 0.10 1014.5
20260507185342 -17 112 14.5 17.7 0.00 0.10 0.10 1014.4
20260507184838 -17 142 9.7 11.3 0.00 0.10 0.10 1014.4
20260507184336 -17 133 16.1 22.5 0.00 0.10 0.10 1014.6
20260507183833 -17 174 11.3 20.9 0.00 0.10 0.10 1014.5
20260507183330 -17 158 8.0 12.9 0.00 0.10 0.10 1014.4
20260507182828 -17 96 9.7 16.1 0.00 0.10 0.10 1014.4
20260507182323 -17 154 11.3 16.1 0.00 0.10 0.10 1014.3
20260507181820 -17 157 14.5 16.1 0.00 0.10 0.10 1014.5
20260507181316 -17 180 9.7 11.3 0.00 0.10 0.10 1014.6
20260507180813 -17 134 12.9 17.7 0.00 0.10 0.10 1014.7
20260507180309 -17 137 6.4 11.3 0.00 0.10 0.10 1014.4
20260507175805 -17 113 6.4 12.9 0.00 0.10 0.10 1015.0
20260507175306 -17 199 11.3 14.5 0.00 0.10 0.10 1014.9
20260507174759 -17 107 9.7 11.3 0.00 0.10 0.10 1014.8
20260507174257 -17 160 4.8 4.8 0.00 0.10 0.10 1015.2
20260507173755 -17 101 14.5 17.7 0.00 0.10 0.10 1015.1
20260507173252 -17 156 8.0 12.9 0.00 0.10 0.10 1015.4
20260507172748 -17 120 8.0 12.9 0.00 0.10 0.10 1015.3
20260507172245 -17 179 8.0 11.3 0.00 0.10 0.10 1015.5
20260507171740 -17 86 17.7 24.1 0.00 0.10 0.10 1015.7
20260507171238 -17 154 9.7 12.9 0.00 0.10 0.10 1015.6
20260507170734 -17 110 9.7 14.5 0.00 0.10 0.10 1015.6
20260507170231 -17 116 6.4 9.7 0.00 0.10 0.10 1015.8
20260507165727 -17 82 14.5 17.7 0.00 0.10 0.10 1016.0
20260507165223 -17 18 8.0 11.3 0.00 0.10 0.10 1016.0
20260507164719 -17 95 16.1 17.7 0.00 0.10 0.10 1015.9
20260507164217 -17 107 14.5 16.1 0.00 0.10 0.10 1016.1
20260507163714 -17 60 14.5 16.1 0.00 0.10 0.10 1016.2
20260507163212 -17 115 17.7 24.1 0.00 0.10 0.10 1016.2
20260507162707 -17 134 8.0 11.3 0.00 0.10 0.10 1016.4
20260507162203 -17 158 9.7 14.5 0.00 0.10 0.10 1016.3
20260507161700 -17 114 14.5 20.9 0.00 0.10 0.10 1016.5
20260507161156 -17 77 12.9 22.5 0.00 0.10 0.10 1016.7
20260507160653 -17 65 14.5 17.7 0.00 0.10 0.10 1016.5
20260507160144 -17 139 12.9 16.1 0.00 0.10 0.10 1016.5
20260507155640 -17 97 17.7 20.9 0.00 0.10 0.10 1016.7
20260507155137 -17 136 6.4 11.3 0.00 0.10 0.10 1016.5
20260507154633 -17 136 12.9 20.9 0.00 0.10 0.10 1016.7
20260507154131 -17 88 16.1 20.9 0.00 0.10 0.10 1016.6
20260507153627 -17 120 8.0 11.3 0.00 0.10 0.10 1016.6
20260507153123 -17 96 8.0 11.3 0.00 0.10 0.10 1016.6
20260507152619 -17 157 9.7 12.9 0.00 0.10 0.10 1016.8
20260507152110 -17 85 8.0 11.3 0.00 0.10 0.10 1016.8
20260507151606 -17 94 16.1 20.9 0.00 0.10 0.10 1016.8
20260507151103 -17 89 12.9 20.9 0.00 0.10 0.10 1016.8
20260507150555 -17 118 14.5 16.1 0.00 0.10 0.10 1016.9
20260507150051 -17 131 8.0 14.5 0.00 0.10 0.10 1016.8
20260507145546 -17 112 9.7 14.5 0.00 0.10 0.10 1016.8
20260507145044 -17 156 17.7 20.9 0.00 0.10 0.10 1017.0
20260507144540 -17 130 6.4 12.9 0.00 0.10 0.10 1017.1
20260507144038 -17 82 6.4 6.4 0.00 0.10 0.10 1016.9
20260507143535 -17 149 6.4 9.7 0.00 0.10 0.10 1017.2
20260507143032 -17 84 11.3 12.9 0.00 0.10 0.10 1017.1
20260507142527 -17 149 9.7 12.9 0.00 0.10 0.10 1017.2
20260507142024 -17 73 16.1 20.9 0.00 0.10 0.10 1016.9
20260507141520 -17 144 17.7 22.5 0.00 0.10 0.10 1017.4
20260507141017 -17 114 9.7 11.3 0.00 0.10 0.10 1017.3
20260507140514 -17 78 9.7 12.9 0.00 0.10 0.10 1017.4
20260507140012 -17 128 9.7 12.9 0.00 0.10 0.10 1017.4
20260507135508 -17 169 8.0 11.3 0.00 0.10 0.10 1017.3
20260507135005 -17 163 11.3 16.1 0.00 0.10 0.10 1017.3
20260507134502 -17 65 8.0 11.3 0.00 0.10 0.10 1017.4
20260507133958 -17 107 8.0 11.3 0.00 0.10 0.10 1017.2
20260507133454 -17 53 11.3 16.1 0.00 0.10 0.10 1017.0
20260507132952 -17 134 6.4 9.7 0.00 0.10 0.10 1017.3
20260507132448 -17 83 12.9 16.1 0.00 0.10 0.10 1017.2
20260507131945 -17 98 6.4 11.3 0.00 0.10 0.10 1017.1
20260507131442 -17 113 6.4 9.7 0.00 0.10 0.10 1017.1
20260507130939 -17 41 11.3 14.5 0.00 0.10 0.10 1017.0
20260507130436 -17 344 12.9 17.7 0.00 0.10 0.10 1017.0
20260507125935 -17 141 4.8 6.4 0.00 0.10 0.10 1017.0
20260507125432 -17 134 8.0 11.3 0.00 0.10 0.10 1017.0
20260507124929 -17 73 6.4 9.7 0.00 0.10 0.10 1017.2
20260507124425 -17 102 14.5 17.7 0.00 0.10 0.10 1016.9
20260507123924 -17 176 6.4 11.3 0.00 0.10 0.10 1017.0
20260507123421 -17 69 4.8 6.4 0.00 0.10 0.10 1016.8
20260507122917 -17 151 4.8 4.8 0.00 0.10 0.10 1016.8
20260507122412 -17 68 3.2 4.8 0.00 0.10 0.10 1016.9
20260507121909 -17 72 6.4 6.4 0.00 0.10 0.10 1017.1
20260507121404 -17 138 9.7 11.3 0.00 0.10 0.10 1016.7
20260507120901 -17 154 3.2 3.2 0.00 0.10 0.10 1016.7
20260507120357 -17 211 3.2 3.2 0.00 0.10 0.10 1016.8
20260507115854 -17 140 6.4 9.7 0.00 0.10 0.10 1016.6
20260507115350 -17 94 4.8 4.8 0.00 0.10 0.10 1016.4
20260507114846 -17 116 6.4 6.4 0.00 0.10 0.10 1016.5
20260507114343 -17 97 1.6 3.2 0.00 0.10 0.10 1016.6
20260507113840 -17 70 8.0 11.3 0.00 0.10 0.10 1016.5
20260507113337 -17 121 6.4 6.4 0.00 0.10 0.10 1016.2
20260507112835 -17 144 3.2 4.8 0.00 0.10 0.10 1016.4
20260507112331 -17 74 1.6 1.6 0.00 0.10 0.10 1016.4
20260507111829 -17 102 4.8 6.4 0.00 0.10 0.10 1016.4
20260507111326 -17 78 0.0 1.6 0.00 0.10 0.10 1016.3
20260507110822 -17 131 3.2 6.4 0.00 0.10 0.10 1016.5
20260507110318 -17 164 3.2 3.2 0.00 0.10 0.10 1016.2
20260507105815 -17 48 0.0 0.0 0.00 0.10 0.10 1016.3
20260507105312 -17 12 0.0 0.0 0.00 0.10 0.10 1016.2
20260507104809 -17 275 0.0 0.0 0.00 0.10 0.10 1016.3
20260507104305 -17 0 0.0 0.0 0.00 0.10 0.10 1016.4
20260507103801 -17 14 0.0 0.0 0.00 0.10 0.10 1016.2
20260507103257 -17 31 0.0 0.0 0.00 0.10 0.10 1016.1
20260507102754 -17 157 1.6 1.6 0.00 0.10 0.10 1016.2
20260507102251 -17 84 0.0 1.6 0.00 0.10 0.10 1015.9
20260507101747 -17 37 0.0 0.0 0.00 0.10 0.10 1015.9
20260507101242 -17 17 0.0 0.0 0.00 0.10 0.10 1016.1
20260507100740 -17 160 3.2 3.2 0.00 0.10 0.10 1015.8
20260507100238 -17 52 0.0 0.0 0.00 0.10 0.10 1015.8
20260507095735 -17 104 3.2 3.2 0.00 0.10 0.10 1016.0
20260507095226 -17 57 1.6 3.2 0.00 0.10 0.10 1015.8
20260507094724 -17 135 0.0 1.6 0.00 0.10 0.10 1015.9
20260507094221 -17 34 0.0 0.0 0.00 0.10 0.10 1016.0
20260507093717 -17 357 0.0 0.0 0.00 0.10 0.10 1015.8
20260507093216 -17 348 0.0 0.0 0.00 0.10 0.10 1015.8
20260507092713 -17 32 0.0 0.0 0.00 0.10 0.10 1015.9
20260507092209 -17 337 0.0 0.0 0.00 0.10 0.10 1015.9
20260507091706 -17 315 0.0 0.0 0.00 0.10 0.10 1015.7
20260507091202 -17 0 0.0 0.0 0.00 0.10 0.10 1015.7
20260507090657 -17 12 0.0 0.0 0.00 0.10 0.10 1015.8
20260507090155 -17 344 0.0 1.6 0.00 0.10 0.10 1015.8
20260507085652 -17 358 0.0 0.0 0.00 0.10 0.10 1016.1
20260507085149 -17 346 0.0 0.0 0.00 0.10 0.10 1015.8
20260507084645 -17 355 0.0 0.0 0.00 0.10 0.10 1015.9
20260507084136 -17 350 0.0 0.0 0.00 0.10 0.10 1015.8
20260507083633 -17 9 0.0 0.0 0.00 0.10 0.10 1016.0
20260507083130 -17 1 0.0 0.0 0.00 0.10 0.10 1015.8
20260507082626 -17 328 1.6 1.6 0.00 0.10 0.10 1015.8
20260507082122 -17 347 1.6 1.6 0.00 0.10 0.10 1016.0
20260507081619 -17 357 0.0 0.0 0.00 0.10 0.10 1015.9
20260507081116 -17 1 0.0 0.0 0.00 0.10 0.10 1015.6
20260507080612 -17 355 0.0 0.0 0.00 0.10 0.10 1015.8
20260507080108 -17 347 0.0 0.0 0.00 0.10 0.10 1015.6
20260507075603 -17 357 0.0 0.0 0.00 0.10 0.10 1015.5
20260507075100 -17 356 0.0 0.0 0.00 0.10 0.10 1015.6
20260507074557 -17 339 0.0 0.0 0.00 0.10 0.10 1015.7
20260507074055 -17 324 1.6 1.6 0.00 0.10 0.10 1015.6
20260507073551 -17 352 0.0 0.0 0.00 0.10 0.10 1015.7
20260507073047 -17 18 0.0 0.0 0.00 0.10 0.10 1015.9
20260507072545 -17 7 0.0 0.0 0.00 0.10 0.10 1015.8
20260507072042 -17 357 0.0 0.0 0.00 0.10 0.10 1016.0
20260507071539 -17 23 0.0 0.0 0.00 0.10 0.10 1015.8
20260507071036 -17 359 0.0 0.0 0.00 0.10 0.10 1016.0
20260507070533 -17 7 0.0 0.0 0.00 0.10 0.10 1016.0
20260507070030 -17 357 0.0 0.0 0.00 0.10 0.10 1016.0
20260507065526 -17 0 0.0 0.0 0.00 0.10 0.10 1016.1
20260507065024 -17 359 0.0 0.0 0.00 0.10 0.10 1016.1
20260507064521 -17 342 0.0 0.0 0.00 0.10 0.10 1016.1
20260507064019 -17 328 0.0 0.0 0.00 0.10 0.10 1016.2
20260507063516 -17 352 0.0 0.0 0.00 0.10 0.10 1016.5
20260507063013 -17 349 0.0 1.6 0.00 0.10 0.10 1016.2
20260507062509 -17 6 0.0 0.0 0.00 0.10 0.10 1016.3
20260507062008 -17 355 0.0 0.0 0.00 0.10 0.10 1016.3
20260507061505 -17 352 0.0 0.0 0.00 0.10 0.10 1016.2
20260507061003 -17 358 0.0 0.0 0.00 0.10 0.10 1016.5
20260507060500 -17 0 0.0 0.0 0.00 0.10 0.10 1016.5
20260507055956 -17 359 0.0 0.0 0.00 0.10 0.10 1016.7
20260507055451 -17 356 0.0 0.0 0.00 0.10 0.10 1016.8
20260507054948 -17 334 1.6 1.6 0.00 0.10 0.10 1016.7
20260507054444 -17 342 0.0 0.0 0.00 0.10 0.10 1016.6
20260507053942 -17 335 0.0 0.0 0.00 0.10 0.10 1016.7
20260507053439 -17 304 0.0 0.0 0.00 0.10 0.10 1016.9
20260507052938 -17 344 0.0 0.0 0.00 0.10 0.10 1016.9
20260507052435 -17 1 0.0 0.0 0.00 0.10 0.10 1017.0
20260507051932 -17 3 0.0 0.0 0.00 0.10 0.10 1017.1
20260507051429 -17 334 0.0 0.0 0.00 0.10 0.10 1017.1
20260507050926 -17 342 0.0 0.0 0.00 0.10 0.10 1017.5
20260507050423 -17 356 0.0 0.0 0.00 0.10 0.10 1017.4
20260507045920 -17 353 0.0 0.0 0.00 0.10 0.10 1017.4
20260507045416 -17 2 0.0 0.0 0.00 0.10 0.10 1017.8
20260507044914 -17 4 0.0 0.0 0.00 0.10 0.10 1017.9
20260507044411 -17 345 0.0 0.0 0.00 0.10 0.10 1017.8
20260507043907 -17 351 0.0 0.0 0.00 0.10 0.10 1017.9
20260507043403 -17 333 0.0 0.0 0.00 0.10 0.10 1017.9
20260507042859 -17 343 0.0 0.0 0.00 0.10 0.10 1017.8
20260507042356 -17 356 0.0 0.0 0.00 0.10 0.10 1017.9
20260507041852 -17 8 0.0 0.0 0.00 0.10 0.10 1018.0
20260507041349 -17 35 0.0 0.0 0.30 0.10 0.10 1018.2
20260507040846 -17 351 0.0 0.0 0.61 0.10 0.10 1018.2
20260507040342 -17 1 0.0 0.0 0.43 0.08 0.08 1018.0
20260507035838 -17 314 0.0 0.0 0.00 0.00 0.00 1018.3
20260507035334 -17 261 0.0 0.0 0.00 0.00 0.00 1018.1
20260507034832 -17 328 0.0 0.0 0.00 0.00 0.00 1018.3
20260507034328 -17 338 1.6 1.6 0.00 0.00 0.00 1018.3
20260507033826 -17 344 0.0 0.0 0.00 0.00 0.00 1018.1
20260507033324 -17 275 0.0 0.0 0.00 0.00 0.00 1018.1
20260507032821 -17 338 0.0 0.0 0.00 0.00 0.00 1018.2
20260507032317 -17 338 0.0 0.0 0.00 0.00 0.00 1018.2
20260507031814 -17 12 1.6 3.2 0.00 0.00 0.00 1018.1
20260507031311 -17 315 3.2 3.2 0.00 0.00 0.00 1018.2
20260507030807 -17 1 0.0 0.0 0.00 0.00 0.00 1018.3
20260507030305 -17 327 0.0 0.0 0.00 0.00 0.00 1018.2
20260507025801 -17 325 1.6 1.6 0.00 0.00 0.00 1018.4
20260507025259 -17 326 1.6 1.6 0.00 0.00 0.00 1018.4
20260507024757 -17 331 0.0 1.6 0.00 0.00 0.00 1018.3
20260507024253 -17 250 0.0 0.0 0.00 0.00 0.00 1018.3